SCP
0 0 0 0 0 0 0 0 0 0 0 0 0 0 0 0 0 0 0 0 0 0 0 0 0 0 0 0 0 -0 -0 0 0 0 -0 0 0 0 0 0 0 0 0
0 0 0 0 0 0 0 0 0 0 0 0 0 0 0 0 0 0 0 0 0 0 0 0 0 0 0 0 0 -0 -0 0 0 0 0 0 0 0 0 0 0 0 0
0 0 0 0 0 0 0 0 0 0 0 0 0 0 0 0 0 0 0 0 0 0 0 0 0 0 0 0 0 -0 0 0 0 0 0 0 0 0 0 0 0 0 0
0 0 0 0 0 0 0 0 0 0 0 0 0 0 0 0 0 0 0 0 0 0 0 0 0 0 0 0 0 0 0 0 0 0 0 0 0 0 0 0 0 0 0
1 0 0 0 0 0 0 0 0 0 0 0 0 0 0 0 0 0 0 0 0 0 0 0 0 0 0 0 0 0 0 0 0 0 0 0 0 0 0 0 0 0 0
1 1 1 0 0 0 0 0 0 0 0 0 0 0 0 0 0 0 0 0 0 0 0 0 0 0 0 0 0 0 0 0 0 0 0 0 0 0 0 0 0 0 0
1 1 1 0 0 0 0 0 0 0 0 0 0 0 0 0 0 0 0 0 0 0 0 0 0 0 0 0 0 0 0 0 0 0 0 0 0 0 0 0 0 0 0
1 1 1 0 0 0 0 0 0 0 0 0 0 0 0 0 0 0 0 0 0 0 0 0 0 0 0 0 0 0 0 0 0 0 0 0 0 0 0 0 0 0 0
1 1 1 1 1 1 0 0 0 0 0 0 0 0 0 0 0 0 0 0 0 0 0 0 0 0 0 0 0 0 0 0 0 0 0 0 0 0 0 0 0 0 0
0 0 1 1 1 1 0 0 0 0 0 0 0 0 0 0 0 0 0 0 0 0 0 0 0 0 0 0 0 0 0 0 0 0 0 0 0 0 0 0 0 0 0
0 0 0 1 1 1 0 0 0 0 0 0 0 0 0 0 0 0 0 0 0 0 0 0 0 0 0 0 0 0 0 0 0 0 0 0 0 0 0 0 0 0 0
0 0 0 0 0 0 0 0 0 0 0 0 0 0 0 0 0 0 0 0 0 0 0 0 0 0 0 0 0 0 0 0 0 0 0 0 0 0 0 0 0 0 0
0 0 0 0 0 0 0 0 0 0 0 0 0 0 0 0 0 0 0 0 0 0 0 0 0 0 0 0 0 0 0 0 0 0 0 0 0 0 0 0 0 0 0
0 0 0 0 0 0 0 0 0 0 0 0 0 0 0 0 0 0 0 0 0 0 0 0 0 0 0 0 0 0 0 0 0 0 0 0 0 0 0 0 0 0 0
0 0 0 0 0 0 0 0 0 0 0 0 0 0 0 0 0 0 0 0 0 0 0 0 0 0 0 0 0 0 0 0 0 0 0 0 0 0 0 0 0 0 0
0 0 0 0 0 0 0 0 0 0 0 0 0 0 0 0 0 0 0 0 0 0 0 0 0 0 0 0 0 0 0 0 0 0 0 0 0 0 0 0 0 0 0
0 0 0 0 0 0 0 0 0 0 0 0 0 0 0 0 0 0 0 0 0 0 0 0 0 0 0 0 0 0 0 0 0 0 0 0 0 0 0 0 0 0 0
0 0 0 0 0 0 0 0 0 0 0 0 0 0 0 0 0 0 0 0 0 0 0 0 0 0 0 0 0 0 0 0 0 0 0 0 0 0 0 0 0 0 0
0 0 0 0 0 0 0 0 0 0 0 0 0 0 0 0 0 0 0 0 0 0 0 0 0 0 0 0 0 0 0 0 0 0 0 0 0 0 0 0 0 0 0
0 0 0 0 0 0 0 0 0 0 0 0 0 0 0 0 0 0 0 0 0 0 0 0 0 0 0 0 0 0 0 0 0 0 0 0 0 0 0 0 0 0 0
0 0 0 0 0 0 0 0 0 0 0 0 0 0 0 0 0 -0 0 0 0 0 0 0 0 0 0 0 0 0 0 0 0 0 0 0 0 0 0 0 0 0 0
0 0 0 0 0 0 0 0 0 0 0 0 0 0 0 0 0 0 0 0 0 0 0 0 0 0 0 0 0 0 0 0 0 0 0 0 0 0 0 0 0 0 0
0 0 0 0 0 0 0 0 0 0 0 0 0 0 0 0 0 0 0 0 0 0 0 0 0 0 0 0 0 0 0 0 0 0 0 0 0 0 0 0 0 0 0
0 0 0 0 0 0 0 0 0 0 0 0 0 0 0 0 0 0 0 0 0 0 0 0 0 0 0 0 0 0 0 0 0 0 0 0 0 0 0 0 0 0 0
0 0 0 0 0 0 0 0 0 0 0 0 0 0 0 0 0 0 0 0 0 0 0 0 0 0 0 0 0 0 0 0 0 0 0 0 0 0 0 0 0 0 0
0 0 0 0 0 0 0 0 0 0 0 0 0 0 0 0 0 0 0 0 0 0 0 0 0 0 0 0 0 0 0 0 0 0 0 0 0 0 0 0 0 0 0
Wind_Speed
9 8 8 7 7 7 7 7 7 6 7 8 8 7 7 6 5 5 4 4 4 3 3 3 3 2 1 1 1 1 2 3 3 3 2 2 2 3 3 3 4 5 5
9 8 8 7 7 7 7 7 7 8 8 8 8 7 7 7 6 6 6 5 5 5 5 4 4 3 3 2 2 2 2 3 3 4 3 2 4 4 4 4 4 5 5
9 9 8 8 8 8 7 7 7 7 7 7 7 8 7 7 7 7 6 6 6 6 6 6 6 5 5 4 4 3 3 3 3 3 4 3 3 3 3 4 4 4 5
9 9 9 9 9 9 7 7 7 7 8 8 7 7 7 6 7 6 6 6 6 6 6 6 7 7 7 6 5 5 4 3 3 3 4 3 3 3 2 3 4 3 4
10 10 10 9 8 7 7 7 6 6 7 7 7 7 6 6 6 7 6 7 6 6 6 6 7 9 10 8 6 5 5 4 4 4 4 3 4 3 3 3 4 4 4
10 10 9 8 7 7 7 7 7 7 6 7 8 8 7 7 9 11 8 6 6 6 6 6 6 8 10 12 12 11 9 7 6 5 5 6 7 5 4 4 3 3 4
9 8 8 7 7 7 7 6 7 7 6 6 7 7 8 8 10 11 12 7 6 7 7 6 6 6 7 6 8 11 11 13 13 8 8 9 8 7 5 5 5 6 7
7 6 6 6 7 5 5 6 6 5 6 6 7 7 7 8 11 11 11 8 6 7 7 7 6 6 5 5 5 6 7 8 10 9 9 10 9 8 7 8 8 6 6
5 5 6 6 6 6 6 6 5 5 5 6 5 6 6 7 9 11 10 5 5 7 6 5 6 6 7 7 4 6 7 8 9 12 13 13 15 14 10 4 5 5 7
3 3 3 3 5 6 6 5 4 5 5 4 4 5 6 5 7 10 10 4 4 4 4 4 7 7 7 6 5 5 8 8 6 7 8 10 11 12 14 10 8 8 7
4 5 4 4 3 3 3 2 2 2 2 2 3 3 3 4 4 6 8 5 5 4 3 3 3 5 7 8 7 7 11 9 6 6 7 7 7 7 8 9 9 9 9
6 6 5 4 3 2 3 2 2 2 2 1 1 1 1 1 2 3 5 7 5 4 4 3 3 5 7 8 7 9 12 9 5 5 6 7 7 8 8 8 10 11 11
7 6 4 4 3 2 2 2 2 2 2 1 1 1 0 0 0 1 2 3 4 3 3 4 5 7 8 6 9 11 8 5 4 5 7 8 8 8 7 6 7 9 10
6 5 4 4 4 4 2 2 2 2 2 1 1 1 0 0 1 1 1 0 1 2 3 4 6 7 7 7 7 6 4 4 4 6 7 7 6 5 6 6 7 6 7
6 5 4 4 4 4 3 2 2 1 2 3 2 2 2 1 2 2 0 0 0 1 1 1 1 2 3 3 4 4 4 4 4 5 6 7 6 6 7 6 6 6 7
6 5 4 3 3 3 2 3 4 3 3 2 1 1 0 0 0 1 2 2 2 0 1 1 2 3 3 4 4 4 4 4 5 5 6 6 6 7 7 6 5 6 8
5 4 3 3 3 2 2 2 3 4 6 5 4 3 2 1 1 2 2 3 3 1 0 2 3 3 4 4 4 4 5 5 4 5 5 6 6 6 6 7 6 6 7
5 5 4 3 3 3 2 2 1 2 2 3 4 4 3 3 2 2 2 3 3 2 1 2 3 4 4 4 4 4 5 5 4 4 5 5 5 6 6 7 6 7 7
4 3 3 3 3 3 2 2 2 3 2 2 2 3 4 3 3 3 3 2 1 2 2 3 3 4 4 4 4 4 4 4 5 5 5 6 5 6 6 6 6 8 8
4 6 5 3 3 3 3 3 3 2 2 2 2 1 2 3 2 3 2 1 1 2 3 3 3 4 4 4 4 4 4 4 5 5 5 5 5 5 6 7 7 7 6
3 4 6 4 3 3 3 2 2 2 2 1 1 1 2 1 1 1 2 2 2 3 3 4 4 4 4 4 4 5 5 5 5 5 5 5 6 6 6 7 7 7 7
2 2 2 2 2 2 2 2 2 2 1 1 1 2 3 2 1 1 2 2 3 3 3 4 4 3 3 4 4 5 5 6 6 6 6 6 6 7 7 7 7 7 7
2 3 3 2 2 3 3 2 2 2 2 2 2 2 3 2 2 3 3 3 3 3 3 3 4 4 4 4 4 4 5 5 6 7 7 8 8 7 7 8 9 9 8
3 3 3 2 3 3 3 3 3 3 3 3 3 3 3 3 3 4 4 4 4 4 4 4 4 6 7 6 4 4 4 5 6 6 9 9 9 9 8 9 9 10 9
3 3 3 3 3 3 3 3 3 3 3 3 3 3 3 3 3 4 4 4 5 5 6 6 5 5 7 9 8 7 7 9 8 8 8 8 10 10 10 10 9 9 9
4 4 3 3 3 3 2 2 3 3 3 3 3 3 3 4 4 4 5 5 5 6 6 6 7 8 9 8 9 10 9 10 10 10 8 7 9 9 9 8 11 9 10
Wind_Direction
184 188 187 186 186 177 177 182 182 181 176 176 178 177 178 178 174 171 185 182 188 207 208 195 211 204 202 215 185 160 162 153 200 269 269 274 262 261 264 251 249 246 252
188 185 187 181 180 180 185 187 179 177 180 179 176 179 185 186 182 182 195 195 195 207 215 208 220 210 213 224 213 211 206 190 189 243 275 276 261 255 254 258 255 247 245
185 183 186 186 186 189 191 185 179 178 179 178 176 183 189 189 189 192 195 200 203 209 210 208 214 205 216 220 216 216 220 215 195 215 256 261 268 268 273 275 269 267 263
185 185 189 193 194 194 190 184 182 179 179 182 182 186 189 192 195 198 196 201 209 214 215 214 214 208 213 216 219 219 217 219 215 224 250 261 264 271 256 266 283 273 269
184 190 197 198 195 190 188 188 186 185 189 185 185 192 191 193 200 199 201 207 211 219 223 222 222 219 217 214 215 213 211 219 224 230 246 258 260 260 250 242 254 271 273
184 193 194 189 189 194 197 192 189 194 196 190 193 196 200 210 209 205 202 212 213 218 226 230 235 233 233 230 231 223 209 212 221 225 236 240 250 241 239 235 238 258 277
183 187 186 187 194 199 201 197 197 197 196 201 205 202 207 217 216 213 211 208 214 220 223 226 239 239 231 233 241 242 236 232 224 222 233 241 244 236 227 238 233 230 241
178 182 180 182 190 191 191 198 202 199 201 207 210 208 211 222 218 220 218 214 219 223 221 219 224 240 237 228 238 249 250 246 238 233 235 244 244 239 224 231 238 245 254
174 178 179 184 185 182 189 195 198 200 208 209 207 208 215 225 216 217 215 212 224 232 231 226 222 229 242 235 232 250 262 265 258 246 241 245 249 248 238 236 240 241 259
140 146 153 168 173 180 190 193 194 195 205 201 213 215 216 223 219 217 210 207 225 239 242 241 236 238 251 244 230 241 257 264 266 274 263 259 254 254 244 230 230 236 247
91 92 95 105 132 154 159 160 156 162 161 179 213 224 216 218 218 214 203 198 216 228 237 243 246 252 256 256 247 239 249 258 261 257 262 263 258 252 245 234 227 228 236
67 69 70 76 80 88 104 107 113 124 131 150 168 245 258 227 202 205 205 208 206 209 234 245 250 264 271 270 259 255 262 268 257 255 259 261 259 257 253 243 235 233 235
62 59 56 56 58 62 87 114 125 130 145 163 173 188 237 308 22 100 160 199 207 214 243 259 276 282 287 282 269 269 271 259 251 254 258 260 258 259 259 256 252 246 246
62 55 55 57 48 46 56 86 107 116 123 122 141 163 194 350 9 17 32 314 258 253 275 288 292 286 278 273 279 278 259 245 246 255 263 267 269 268 264 260 261 258 257
57 53 48 50 56 53 48 56 83 97 139 144 166 170 167 196 247 226 168 338 287 262 286 308 304 299 295 289 285 279 273 270 264 263 266 271 272 269 268 262 257 258 255
53 46 43 42 45 46 45 29 33 57 58 82 111 123 111 179 273 318 342 348 344 356 88 301 287 283 281 284 288 290 284 276 271 271 270 268 269 271 273 269 258 254 258
54 43 38 37 32 31 44 51 24 19 34 44 55 74 89 65 15 328 345 2 3 51 37 293 289 287 286 287 285 283 285 285 285 283 279 279 278 277 273 271 266 261 260
45 42 41 30 22 26 37 49 79 83 41 17 25 44 47 42 27 11 26 41 12 14 301 284 287 289 289 290 288 285 285 290 291 289 287 286 285 284 282 278 271 264 266
36 26 24 23 25 31 37 47 56 69 77 60 24 15 17 24 32 34 58 57 340 319 307 297 295 296 296 292 289 289 290 290 292 292 291 290 291 290 285 281 278 275 269
26 23 29 29 28 30 35 42 47 59 67 64 46 0 1 31 20 360 4 346 323 308 305 302 302 302 301 301 302 302 303 301 301 296 294 294 292 288 288 287 285 284 278
18 15 24 28 26 34 39 43 51 65 69 61 354 340 47 51 337 317 320 314 302 295 295 295 295 296 296 297 298 299 301 298 297 297 298 298 297 295 290 286 285 283 280
17 17 23 24 31 39 40 42 49 54 36 10 341 359 17 30 359 335 323 316 311 304 300 297 295 294 295 298 299 301 302 301 301 301 299 295 292 290 289 289 288 288 286
19 23 29 32 38 41 43 38 38 34 22 10 6 8 7 3 355 348 336 326 320 317 314 316 314 308 307 304 300 298 297 299 302 304 302 299 297 294 292 290 287 286 285
30 37 44 39 42 48 49 43 41 38 27 16 11 11 11 6 356 347 337 328 326 325 323 321 317 316 319 319 314 309 307 310 310 303 299 294 293 290 289 287 286 285 285
48 47 45 45 47 47 47 44 39 34 27 19 12 9 1 356 350 344 339 335 335 332 331 328 324 324 323 324 322 320 317 312 305 305 300 292 287 286 286 287 287 290 288
50 54 53 49 48 42 38 30 26 24 18 13 8 4 2 359 355 351 346 344 339 334 332 329 330 330 327 325 325 325 317 311 307 305 298 288 285 285 289 288 289 289 288